Notices

What's New in latest Release from April 7th, 2021:

- Updated Glossary, including Speed of Maximum Gust, and Total Hourly Precipitation

- Updated national and regional climate services offices contacts and prices information

- Addition of station inventory lists for 1981-2010, 1971-2000, and 1961-1990 Normals.

If you haven't already, please take our survey and provide feedback about our website: https://eccc.sondage-survey.ca/f/LanguageSelection.aspx?s=442ca660-fcf1-47c0-95a9-59707d6fd709

Hourly Data Report for October 12, 2015

IQALUIT CLIMATE
NUNAVUT

63°44'50.000" N
68°32'40.000" W
33.50 m
2402592
71321
XFB

Download Data

Hourly Data (October 2015)
Hourly Data Report for October 12, 2015
TIME
LST
Temp Definition
°C
Dew Point Definition
°C
Rel Hum Definition
%
Precip. Amount Definition
mm

Wind Dir Definition
10's deg

Wind Spd Definition
km/h
Visibility Definition
km
Stn Press Definition
kPa
Hmdx Definition


Wind Chill Definition


Weather Definition


00:00 -0.5 -1.5 93 0.0 33 16   99.52   -5 LegendNANA
01:00 -0.5 -1.4 93 0.0 32 15   99.50   -5 LegendNANA
02:00 -0.3 -1.5 92 0.0 32 17   99.48   -5 LegendNANA
03:00 -0.4 -1.5 93 0.0 30 14   99.46   -5 LegendNANA
04:00 -0.9 -1.8 93 0.0 32 21   99.45   -7 LegendNANA
05:00 -1.0 -1.9 94 0.0 32 16   99.44   -6 LegendNANA
06:00 -0.9 -2.0 92 0.0 33 15   99.44   -6 LegendNANA
07:00 -1.2 -2.5 91 0.0 32 24   99.42   -7 LegendNANA
08:00 -0.8 -2.1 91 0.0 32 28   99.39   -7 LegendNANA
09:00 -0.6 -2.2 89 0.0 32 30   99.39   -7 LegendNANA
10:00 -0.2 -1.9 88 0.0 33 27   99.41   -6 LegendNANA
11:00 -0.3 -1.9 89 0.0 33 27   99.44   -7 LegendNANA
12:00 0.0 -2.2 85 0.0 31 31   99.46   -7 LegendNANA
13:00 0.3 -2.5 82 0.0 31 30   99.47     LegendNANA
14:00 -0.1 -2.0 87 0.0 31 29   99.48   -6 LegendNANA
15:00 0.0 -2.1 86 0.0 31 28   99.54   -6 LegendNANA
16:00 -0.1 -1.9 87 0.0 32 24   99.59   -6 LegendNANA
17:00 -0.4 -2.6 85 0.0 33 28   99.63   -7 LegendNANA
18:00 -0.8 -3.0 85 0.0 31 30   99.65   -8 LegendNANA
19:00 -1.0 -2.5 90 0.0 32 20   99.70   -7 LegendNANA
20:00 -1.0 -2.7 88 0.0 32 17   99.72   -6 LegendNANA
21:00 -1.6 -3.2 89 0.0 32 15   99.72   -6 LegendNANA
22:00 -1.7 -2.9 91 0.0 32 6   99.74   -4 LegendNANA
23:00 -1.4 -2.7 91 0.0 34 5   99.75   -3 LegendNANA

Notes on Data Quality.

Legend

  • E = Estimated
  • M = Missing
  • NA = Not Available*
  • [empty] = Indicates an unobserved value
Date modified: